Content
SEND FEEDBACK

Daily
Averages
Monthly
Summary
United Kingdom

LONDON, ENGLAND


Home > Europe > United Kingdom > England
Elevation: 203 feet     Latitude: 51 09N     Longitude: 000 11W

WEATHER
 
SELECT A DAY
Number of Records: 297,145;   Date Range: 7/1/96 - 10/20/14
 
SHARE

PRINT THIS DATA

[ ← Previous Day ]
WEATHER ALMANAC - JANUARY 25, 2013
[ Next Day → ]
[ °C ]   °F
Weather ElementAverageHighLow
Temperature34.1 °F37.4 °F (8:20 pm)32 °F (12:50 am)
Dewpoint29.1 °F33.8 °F (10:50 pm)26.6 °F (1:20 pm)
Humidity82.1 %93 % (11:50 pm)70 % (1:20 pm)
Barometer29.93 in30.12 in (12:50 am)29.59 in (11:50 pm)
Wind Speed7 mph12.7 mph (9:50 pm)
Weather ElementAverage
Visibility5.1 mi
Wind DirectionESE (116.4 °)

Weather ElementTotal
Precipitation---
Heating Degree Days30.3 (Base 65)
Averaged from 47 records on January 25, 2013
WEATHER CONDITIONS BREAKOUT
WIND DIRECTION BREAKOUT
WEATHER BY HOUR - JANUARY 25, 2013
[ °C ]   °F
Local TimeTemperatureDewpointHumidityBarometerVisibilityWind DirectionWind SpeedGust SpeedPrecipitationEventsConditions
12:50 AM32.0 °F28.4 °F87 %30.12 in5.6 miCalmOvercast
1:20 AM32.0 °F28.4 °F87 %30.12 in5.6 miCalmOvercast
1:50 AM32.0 °F28.4 °F87 %30.09 in5.0 miEast (80°)2.3 mphOvercast
2:20 AM32.0 °F28.4 °F87 %30.09 in5.0 miCalmOvercast
2:50 AM32.0 °F28.4 °F87 %30.09 in5.0 miVariable2.3 mphOvercast
3:20 AM32.0 °F28.4 °F87 %30.09 in5.0 miCalmOvercast
3:50 AM32.0 °F28.4 °F87 %30.09 in4.3 miVariable2.3 mphOvercast
4:20 AM32.0 °F28.4 °F87 %30.12 in5.0 miVariable3.5 mphOvercast
4:50 AM32.0 °F28.4 °F87 %30.09 in5.0 miENE (70°)3.5 mphOvercast
5:20 AM32.0 °F28.4 °F87 %30.09 in5.0 miEast (80°)3.5 mphOvercast
5:50 AM32.0 °F28.4 °F87 %30.09 in5.0 miEast (90°)4.6 mphOvercast
6:20 AM32.0 °F28.4 °F87 %30.09 in5.0 miEast (100°)5.8 mphOvercast
6:50 AM32.0 °F28.4 °F87 %30.09 in6.2 miVariable2.3 mphOvercast
7:20 AM32.0 °F28.4 °F87 %30.06 in6.2 miEast (100°)3.5 mphMostly Cloudy
7:50 AM32.0 °F28.4 °F87 %30.06 in6.2 miESE (110°)4.6 mphMostly Cloudy
8:20 AM33.8 °F28.4 °F81 %30.06 in6.2 miSSE (150°)5.8 mphMostly Cloudy
8:50 AM33.8 °F28.4 °F81 %30.06 in6.2 miSSE (150°)4.6 mphMostly Cloudy
9:20 AM33.8 °F28.4 °F81 %30.06 in6.2 miSE (130°)6.9 mphMostly Cloudy
9:50 AM33.8 °F28.4 °F81 %30.06 in6.2 miSE (130°)5.8 mphMostly Cloudy
10:20 AM33.8 °F28.4 °F81 %30.04 in6.2 miSE (140°)5.8 mphMostly Cloudy
10:50 AM35.6 °F28.4 °F75 %30.04 in6.2 miSE (140°)6.9 mphMostly Cloudy
11:20 AM35.6 °F28.4 °F75 %30.04 in6.2 miSSE (150°)9.2 mphMostly Cloudy
11:50 AM35.6 °F28.4 °F75 %30.01 in6.2 miSSE (150°)8.1 mphMostly Cloudy
12:20 PM35.6 °F28.4 °F75 %30.01 in6.2 miSSE (150°)9.2 mphMostly Cloudy
12:50 PM35.6 °F28.4 °F75 %29.98 in6.2 miSSE (150°)9.2 mphMostly Cloudy
1:20 PM35.6 °F26.6 °F70 %29.98 in6.2 miSSE (160°)10.4 mphMostly Cloudy
1:50 PM35.6 °F26.6 °F70 %29.95 in6.2 miSSE (150°)10.4 mphMostly Cloudy
2:20 PM33.8 °F26.6 °F75 %29.95 in6.2 miSSE (150°)11.5 mphMostly Cloudy
2:50 PM33.8 °F26.6 °F75 %29.92 in6.2 miSSE (150°)10.4 mphMostly Cloudy
3:20 PM33.8 °F26.6 °F75 %29.89 in6.2 miSSE (150°)10.4 mphMostly Cloudy
3:50 PM33.8 °F26.6 °F75 %29.89 in5.6 miSSE (150°)10.4 mphOvercast
4:20 PM33.8 °F28.4 °F81 %29.86 in6.2 miSSE (150°)8.1 mphMostly Cloudy
4:50 PM33.8 °F28.4 °F81 %29.86 in6.2 miSE (140°)8.1 mphOvercast
5:20 PM33.8 °F28.4 °F81 %29.83 in6.2 miSSE (150°)9.2 mphOvercast
5:50 PM33.8 °F28.4 °F81 %29.83 in5.0 miSSE (150°)8.1 mphMostly Cloudy
6:20 PM33.8 °F28.4 °F81 %29.80 in4.3 miSSE (150°)8.1 mphOvercast
6:50 PM33.8 °F30.2 °F87 %29.77 in5.0 miSSE (150°)9.2 mphMostly Cloudy
7:20 PM35.6 °F30.2 °F81 %29.74 in3.1 miSSE (150°)8.1 mphHaze
7:50 PM35.6 °F32.0 °F87 %29.71 in3.1 miSSE (150°)8.1 mphHaze
8:20 PM37.4 °F32.0 °F81 %29.71 in3.1 miSSE (160°)8.1 mphHaze
8:50 PM37.4 °F32.0 °F81 %29.68 in3.1 miSSE (150°)10.4 mphHaze
9:20 PM37.4 °F32.0 °F81 %29.65 in3.1 miSSE (160°)11.5 mphHaze
9:50 PM37.4 °F32.0 °F81 %29.65 in3.1 miSSE (160°)12.7 mphHaze
10:20 PM37.4 °F32.0 °F81 %29.62 in3.1 miSSE (160°)11.5 mphRain-SnowLight Rain
10:50 PM37.4 °F33.8 °F87 %29.62 in2.8 miSouth (170°)11.5 mphRainLight Rain
11:20 PM37.4 °F33.8 °F87 %29.62 in2.5 miSouth (170°)10.4 mphRainLight Rain
11:50 PM35.6 °F33.8 °F93 %29.59 in2.2 miSouth (170°)10.4 mphRainLight Rain
Hourly data recorded from EGKK, located miles away from London, England







STORIES FROM OUR PARTNERS